Location: Ariel
(45.9570°N, 122.5700°W)
Time: 23:58:17
(UTC-07:00)

Altair - Pass Details

Date: 21 July 2019
Orbit: 1501 x 1683 km, 47.2° (Epoch: 21 August)

Event Time Altitude Azimuth Distance (km) Brightness Sun altitude
Rises 13:19:33 0° 236° (SW) 4,644 10.2 64.4°
Reaches altitude 10° 13:22:35 10° 234° (SW) 3,655 9.9 64.4°
Maximum altitude 13:31:39 69° 153° (SSE) 1,590 9.7 64.3°
Drops below altitude 10° 13:40:47 10° 73° (ENE) 3,684 9.5 64.0°
Sets 13:43:52 0° 71° (ENE) 4,684 9.9 63.8°
